This is the latest recevied weather packets stored in our database for station/object OE3DJB-10. If no packets are shown the sender has not sent any weather packets the latest 10 day(s).
| Time | Temp. | Humidity | Pressure | Rain* | Wind** | Luminosity | Snow |
|---|---|---|---|---|---|---|---|
| 1778310759 | 13.33° C | 48% | 1023.7 hPa | - | - | - | - |
| 1778309859 | 12.78° C | 48% | 1023.7 hPa | - | - | - | - |
| 1778308959 | 12.78° C | 48% | 1023.7 hPa | - | - | - | - |
| 1778308059 | 12.78° C | 48% | 1023.7 hPa | - | - | - | - |
| 1778307159 | 12.78° C | 48% | 1023.7 hPa | - | - | - | - |
| 1778306258 | 12.78° C | 48% | 1023.6 hPa | - | - | - | - |
| 1778305358 | 12.22° C | 47% | 1023.5 hPa | - | - | - | - |
| 1778304458 | 12.22° C | 47% | 1023.5 hPa | - | - | - | - |
| 1778303558 | 12.22° C | 47% | 1023.3 hPa | - | - | - | - |
| 1778302658 | 12.22° C | 47% | 1023.2 hPa | - | - | - | - |
| 1778301758 | 12.78° C | 47% | 1023 hPa | - | - | - | - |
| 1778300858 | 12.78° C | 47% | 1022.8 hPa | - | - | - | - |
| 1778299957 | 12.78° C | 47% | 1022.8 hPa | - | - | - | - |
| 1778299057 | 12.78° C | 46% | 1022.8 hPa | - | - | - | - |
| 1778298157 | 12.78° C | 47% | 1022.7 hPa | - | - | - | - |
| 1778297257 | 13.33° C | 46% | 1022.6 hPa | - | - | - | - |
| 1778296357 | 13.33° C | 46% | 1022.7 hPa | - | - | - | - |
| 1778295457 | 13.33° C | 46% | 1022.7 hPa | - | - | - | - |
| 1778294557 | 13.33° C | 46% | 1022.7 hPa | - | - | - | - |
| 1778293656 | 13.89° C | 46% | 1022.7 hPa | - | - | - | - |
| 1778292756 | 13.89° C | 46% | 1022.8 hPa | - | - | - | - |
| 1778291856 | 13.89° C | 46% | 1022.7 hPa | - | - | - | - |
| 1778290956 | 13.89° C | 45% | 1022.8 hPa | - | - | - | - |
| 1778290056 | 14.44° C | 46% | 1022.7 hPa | - | - | - | - |
| 1778289156 | 14.44° C | 46% | 1022.7 hPa | - | - | - | - |
* Rain since midnight (hover to see other rain measurements)
** Current wind speed in m/s (hover to see current wind gust speed)